Location: Tel Aviv
(32.0670°N, 34.7670°E)
Time: 08:29:53
(UTC+02:00)

Transit 2A Rocket - Pass Details

Date: 10 December 2023
Orbit: 590 x 905 km, 66.7° (Epoch: 01 March)

Event Time Altitude Azimuth Distance (km) Brightness Sun altitude
Exits shadow 03:55:47 16° 41° (NE) 1,636 7.0 -31.9°
Maximum altitude 03:56:42 17° 56° (NE) 1,603 7.1 -31.7°
Drops below altitude 10° 03:59:45 10° 97° (E) 2,071 8.1 -31.1°
Sets 04:02:52 0° 118° (ESE) 3,043 9.1 -30.5°
